FW9685 Weather Reports


time (UTC)temp
F
wind
direction
speed
knots
gust
knots
rain 1hr
in
rain 24hr
in
rain mn
in
humidity
%
barometer
mb
20260510164558 85 219 6.1 17.4 0.00 0.00 0.00 32 1014.0
20260510163056 84 216 11.3 16.5 0.00 0.00 0.00 34 1013.8
20260510161553 83 257 7.8 19.1 0.00 0.00 0.00 35 1013.8
20260510160108 83 230 13.9 20.0 0.00 0.00 0.00 34 1013.6
20260510154619 82 198 13.9 20.0 0.00 0.00 0.00 40 1013.2
20260510153102 80 195 13.0 21.7 0.00 0.00 0.00 44 1013.0
20260510151553 80 188 12.2 22.6 0.00 0.00 0.00 46 1013.1
20260510150110 79 188 8.7 18.2 0.00 0.00 0.00 50 1013.1
20260510144616 77 172 7.8 17.4 0.00 0.00 0.00 54 1013.0
20260510143053 76 175 8.7 16.5 0.00 0.00 0.00 55 1012.8
20260510141551 75 178 8.7 15.6 0.00 0.00 0.00 57 1012.5
20260510140056 74 185 9.6 16.5 0.00 0.00 0.00 59 1012.2
20260510134553 73 184 12.2 20.0 0.00 0.00 0.00 60 1012.4
20260510133058 73 200 13.9 19.1 0.00 0.00 0.00 60 1012.1
20260510131551 72 199 10.4 18.2 0.00 0.00 0.00 62 1011.8
20260510130056 71 195 9.6 16.5 0.00 0.00 0.00 63 1011.7
20260510124559 70 184 8.7 13.0 0.00 0.00 0.00 65 1011.6
20260510123056 69 167 6.1 12.2 0.00 0.00 0.00 66 1011.5
20260510121552 69 178 7.0 13.0 0.00 0.00 0.00 66 1011.2
20260510120052 69 173 7.0 11.3 0.00 0.00 0.00 65 1011.1
20260510114554 69 179 6.1 12.2 0.00 0.00 0.00 65 1011.2
20260510113052 70 176 6.1 10.4 0.00 0.00 0.00 65 1011.0
20260510111553 69 179 7.0 12.2 0.00 0.00 0.00 65 1010.8
20260510110053 70 194 8.7 13.9 0.00 0.00 0.00 63 1010.8
20260510104601 71 181 7.8 13.9 0.00 0.00 0.00 62 1010.7
20260510103057 71 178 7.8 13.9 0.00 0.00 0.00 62 1010.6
20260510101603 72 175 8.7 16.5 0.00 0.00 0.00 60 1010.4
20260510100055 73 176 11.3 20.0 0.00 0.00 0.00 59 1010.4
20260510094600 72 200 11.3 19.1 0.00 0.00 0.00 59 1010.5
20260510093052 73 190 13.9 24.3 0.00 0.00 0.00 58 1010.3
20260510091551 73 191 13.9 24.3 0.00 0.00 0.00 57 1010.3
20260510090053 73 181 13.9 19.1 0.00 0.00 0.00 56 1010.5
20260510084601 73 189 15.6 22.6 0.00 0.00 0.00 55 1010.4
20260510083114 73 191 13.9 23.5 0.00 0.00 0.00 54 1010.4
20260510081611 73 186 11.3 18.2 0.00 0.00 0.00 53 1010.6
20260510080050 74 187 12.2 20.9 0.00 0.00 0.00 52 1010.7
20260510074553 74 182 11.3 17.4 0.00 0.00 0.00 52 1010.8
20260510073055 74 188 12.2 21.7 0.00 0.00 0.00 50 1010.9
20260510071555 75 187 11.3 20.0 0.00 0.00 0.00 49 1011.1
20260510070054 75 180 10.4 17.4 0.00 0.00 0.00 47 1011.1
20260510064554 75 169 9.6 17.4 0.00 0.00 0.00 45 1011.2
20260510063052 76 168 8.7 15.6 0.00 0.00 0.00 43 1011.3
20260510061601 76 177 9.6 16.5 0.00 0.00 0.00 42 1011.4
20260510060054 77 187 9.6 15.6 0.00 0.00 0.00 41 1011.2
20260510054556 77 178 8.7 18.2 0.00 0.00 0.00 40 1011.1
20260510053058 77 165 10.4 18.2 0.00 0.00 0.00 39 1011.1
20260510051557 78 178 10.4 16.5 0.00 0.00 0.00 39 1011.2
20260510050059 78 160 9.6 15.6 0.00 0.00 0.00 37 1011.2
20260510044552 79 158 9.6 18.2 0.00 0.00 0.00 35 1011.3
20260510043055 79 159 8.7 17.4 0.00 0.00 0.00 32 1011.3
20260510041559 79 181 7.8 13.9 0.00 0.00 0.00 30 1011.2
20260510040105 80 183 9.6 16.5 0.00 0.00 0.00 27 1011.1
20260510034604 81 169 7.8 14.8 0.00 0.00 0.00 26 1011.0
20260510033100 81 168 9.6 14.8 0.00 0.00 0.00 26 1010.9
20260510031610 82 156 8.7 14.8 0.00 0.00 0.00 26 1010.8
20260510030106 82 165 11.3 15.6 0.00 0.00 0.00 26 1010.6
20260510024559 83 161 8.7 14.8 0.00 0.00 0.00 26 1010.6
20260510023102 84 161 10.4 16.5 0.00 0.00 0.00 25 1010.5
20260510021555 84 161 10.4 13.9 0.00 0.00 0.00 24 1010.4
20260510020053 85 159 9.6 13.9 0.00 0.00 0.00 22 1010.4
20260510014600 86 169 8.7 13.0 0.00 0.00 0.00 18 1009.9
20260510013109 87 165 8.7 12.2 0.00 0.00 0.00 17 1010.0
20260510011553 89 169 6.1 12.2 0.00 0.00 0.00 16 1009.6
20260510010055 89 180 7.8 13.0 0.00 0.00 0.00 15 1009.8
20260510004558 90 177 6.1 11.3 0.00 0.00 0.00 14 1009.9
20260510003054 91 180 6.1 10.4 0.00 0.00 0.00 13 1010.0
20260510001555 91 198 5.2 11.3 0.00 0.00 0.00 14 1010.1
20260510000054 91 161 5.2 13.9 0.00 0.00 0.00 14 1010.2
20260509234556 91 171 7.0 13.0 0.00 0.00 0.00 13 1010.4
20260509233108 91 160 3.5 9.6 0.00 0.00 0.00 12 1010.3
20260509231559 92 232 11.3 14.8 0.00 0.00 0.00 13 1010.4
20260509230053 91 204 5.2 13.0 0.00 0.00 0.00 14 1010.5
20260509224553 91 237 7.0 15.6 0.00 0.00 0.00 13 1010.7
20260509223053 91 172 5.2 9.6 0.00 0.00 0.00 14 1010.8
20260509221554 91 242 7.0 12.2 0.00 0.00 0.00 13 1011.0
20260509220056 91 246 6.1 14.8 0.00 0.00 0.00 15 1011.1
20260509214555 91 205 7.8 15.6 0.00 0.00 0.00 14 1011.1
20260509213057 91 256 7.0 12.2 0.00 0.00 0.00 16 1011.2
20260509211556 90 178 11.3 20.0 0.00 0.00 0.00 17 1011.4
20260509210106 90 185 8.7 19.1 0.00 0.00 0.00 15 1011.6
20260509204603 90 214 9.6 17.4 0.00 0.00 0.00 19 1011.7
20260509203055 90 219 9.6 17.4 0.00 0.00 0.00 20 1012.1
20260509201600 88 167 9.6 17.4 0.00 0.00 0.00 20 1012.2
20260509200108 89 207 6.1 17.4 0.00 0.00 0.00 21 1012.4
20260509194555 88 202 6.1 16.5 0.00 0.00 0.00 23 1012.7
20260509193058 87 171 5.2 13.9 0.00 0.00 0.00 24 1012.9
20260509191604 86 220 9.6 15.6 0.00 0.00 0.00 25 1013.1
20260509184652 87 176 7.0 13.9 0.00 0.00 0.00 24 1013.4
20260509183101 86 235 8.7 15.6 0.00 0.00 0.00 27 1013.7
20260509181551 85 200 5.2 16.5 0.00 0.00 0.00 29 1013.7
20260509180108 85 213 7.0 15.6 0.00 0.00 0.00 29 1013.7
20260509174554 84 219 7.0 14.8 0.00 0.00 0.00 29 1013.9
20260509173057 84 195 3.5 13.0 0.00 0.00 0.00 33 1014.0
20260509171552 83 170 7.0 12.2 0.00 0.00 0.00 34 1014.2